This is the latest recevied weather packets stored in our database for station/object KP4OZ. If no packets are shown the sender has not sent any weather packets the latest 10 day(s).
| Time | Temp. | Humidity | Pressure | Rain* | Wind** | Luminosity | Snow |
|---|---|---|---|---|---|---|---|
| 1777139258 | 31.11° C | 62% | 1011.8 hPa | 0 mm | - | - | - |
| 1777138956 | 31.11° C | 63% | 1012 hPa | 0 mm | - | - | - |
| 1777138652 | 31.11° C | 63% | 1012.1 hPa | 0 mm | - | - | - |
| 1777138347 | 31.67° C | 62% | 1012.2 hPa | 0 mm | - | - | - |
| 1777138045 | 31.67° C | 62% | 1012.1 hPa | 0 mm | - | - | - |
| 1777137740 | 31.67° C | 62% | 1012.2 hPa | 0 mm | - | - | - |
| 1777137436 | 31.67° C | 61% | 1012.2 hPa | 0 mm | - | - | - |
| 1777137134 | 31.67° C | 60% | 1012.4 hPa | 0 mm | - | - | - |
| 1777136830 | 31.67° C | 59% | 1012.6 hPa | 0 mm | - | - | - |
| 1777136528 | 31.67° C | 60% | 1012.5 hPa | 0 mm | - | - | - |
| 1777136225 | 31.67° C | 60% | 1012.6 hPa | 0 mm | - | - | - |
| 1777135922 | 31.67° C | 60% | 1012.6 hPa | 0 mm | - | - | - |
| 1777135617 | 31.67° C | 59% | 1012.5 hPa | 0 mm | - | - | - |
| 1777135313 | 31.67° C | 61% | 1012.8 hPa | 0 mm | - | - | - |
| 1777135011 | 32.22° C | 59% | 1012.7 hPa | 0 mm | - | - | - |
| 1777134708 | 32.22° C | 60% | 1012.9 hPa | 0 mm | - | - | - |
| 1777134404 | 31.67° C | 60% | 1013 hPa | 0 mm | - | - | - |
| 1777134101 | 31.67° C | 60% | 1013.1 hPa | 0 mm | - | - | - |
| 1777133797 | 32.22° C | 59% | 1013.2 hPa | 0 mm | - | - | - |
| 1777133493 | 32.78° C | 58% | 1013.2 hPa | 0 mm | - | - | - |
| 1777133193 | 33.33° C | 58% | 1013.2 hPa | 0 mm | - | - | - |
| 1777132893 | 32.78° C | 56% | 1013 hPa | 0 mm | - | - | - |
| 1777132589 | 32.22° C | 55% | 1012.9 hPa | 0 mm | - | - | - |
| 1777132286 | 32.22° C | 57% | 1013.1 hPa | 0 mm | - | - | - |
| 1777131982 | 32.78° C | 47% | 1013 hPa | 0 mm | - | - | - |
* Rain latest hour (hover to see other rain measurements)
** Current wind speed in m/s (hover to see current wind gust speed)